Overview Statistics Trail Chart Weather Telemetry Raw packets
 

This is the latest recevied weather packets stored in our database for station/object N0QWM. If no packets are shown the sender has not sent any weather packets the latest 10 day(s).

<< 15 16 17 18 19 20 21 >>
Time Temp. Humidity Pressure Rain* Wind** Luminosity Snow
1788552112 37.22° C 50% 1019.2 hPa 0 mm - 482 W/m² -
1788551810 37.22° C 49% 1019.3 hPa 0 mm - 557 W/m² -
1788551510 36.67° C 49% 1019.4 hPa 0 mm - 517 W/m² -
1788551205 36.67° C 51% 1019.5 hPa 0 mm - 548 W/m² -
1788550904 36.11° C 53% 1019.4 hPa 0 mm - 533 W/m² -
1788550599 35.56° C 54% 1019.6 hPa 0 mm - 544 W/m² -
1788550296 35° C 56% 1019.8 hPa 0 mm - 340 W/m² -
1788549995 36.11° C 53% 1019.7 hPa 0 mm - 96 W/m² -
1788549691 35.56° C 52% 1019.6 hPa 0 mm - 162 W/m² -
1788549388 36.11° C 53% 1019.9 hPa 0 mm - 107 W/m² -
1788549084 37.22° C 50% 1020.1 hPa 0 mm - 390 W/m² -
1788548779 36.67° C 52% 1020.2 hPa 0 mm - 166 W/m² -
1788548475 36.11° C 52% 1020 hPa 0 mm - 140 W/m² -
1788548172 36.67° C 54% 1020.2 hPa 0 mm - 662 W/m² -
1788547866 36.11° C 54% 1020.1 hPa 0 mm - 690 W/m² -
1788547565 35.56° C 54% 1020.4 hPa 0 mm - 645 W/m² -
1788547261 36.67° C 53% 1020.4 hPa 0 mm - 638 W/m² -
1788546956 36.67° C 53% 1020.4 hPa 0 mm - 654 W/m² -
1788546651 36.11° C 55% 1020.5 hPa 0 mm - 633 W/m² -
1788546347 35° C 57% 1020.6 hPa 0 mm - 612 W/m² -
1788546047 36.11° C 55% 1020.7 hPa 0 mm - 102 W/m² -
1788545743 36.67° C 54% 1020.7 hPa 0 mm - 649 W/m² -
1788545442 35.56° C 56% 1021 hPa 0 mm - 675 W/m² -
1788545137 36.67° C 53% 1020.9 hPa 0 mm - 139 W/m² -
1788544832 36.11° C 54% 1021.1 hPa 0 mm - 678 W/m² -

* Rain latest hour (hover to see other rain measurements)
** Current wind speed in m/s (hover to see current wind gust speed)